N103AL KAPC-KAPC

Flight info

Callsign N103AL
Flight time 0h 0m
Altitude
Route
Aircraft

Departure

Time 2026-05-05 00:48
Airport Napa County Airport (KAPC)

Arrival

Time 2026-05-05 00:48
Airport Napa County Airport (KAPC)
Time Latitude Longitude Altitude Speed Heading
2026-05-05 00:47 38.18897 -122.31374 955 ft 56 kts 86°
2026-05-05 00:48 38.18947 -122.30901 848 ft 55 kts 71°
2026-05-05 00:48 38.19095 -122.30468 781 ft 53 kts 60°
2026-05-05 00:48 38.19249 -122.30048 719 ft 50 kts 59°
2026-05-05 00:48 38.19398 -122.29665 651 ft 46 kts 54°
2026-05-05 00:49 38.19572 -122.29331 574 ft 44 kts 33°
2026-05-05 00:49 38.19774 -122.29073 497 ft 37 kts 32°
2026-05-05 00:49 38.19980 -122.28905 411 ft 33 kts 16°
2026-05-05 00:49 38.20187 -122.28791 325 ft 31 kts
2026-05-05 00:50 38.20392 -122.28696 237 ft 32 kts
2026-05-05 00:50 38.20596 -122.28606 153 ft 29 kts 359°
2026-05-05 00:50 38.20790 -122.28521 65 ft 29 kts
2026-05-05 00:50 38.20961 -122.28447 13 ft 18 kts 14°
2026-05-05 00:51 38.21208 -122.28328 132 ft 46 kts 12°
2026-05-05 00:51 38.21514 -122.28191 319 ft 48 kts 12°
2026-05-05 00:51 38.21825 -122.28038 479 ft 48 kts 14°
2026-05-05 00:51 38.22121 -122.27816 633 ft 52 kts 38°
2026-05-05 00:52 38.22196 -122.27336 750 ft 60 kts 91°
2026-05-05 00:52 38.22176 -122.26813 850 ft 56 kts 97°
2026-05-05 00:52 38.22133 -122.26345 826 ft 52 kts 102°
2026-05-05 00:52 38.21938 -122.26002 708 ft 48 kts 169°
2026-05-05 00:53 38.21630 -122.25975 553 ft 39 kts 194°
2026-05-05 00:53 38.21390 -122.26070 434 ft 32 kts 231°
2026-05-05 00:53 38.21274 -122.26278 336 ft 26 kts 255°
2026-05-05 00:53 38.21213 -122.26497 269 ft 26 kts 256°
2026-05-05 00:54 38.21169 -122.26714 207 ft 25 kts 262°
2026-05-05 00:54 38.21124 -122.26934 163 ft 25 kts 262°
2026-05-05 00:54 38.21085 -122.27146 93 ft 24 kts 257°
2026-05-05 00:54 38.21048 -122.27352 28 ft 16 kts 259°
2026-05-05 00:55 38.21012 -122.27573 104 ft 37 kts 260°
2026-05-05 00:55 38.20958 -122.27898 291 ft 40 kts 257°
2026-05-05 00:55 38.20873 -122.28246 433 ft 44 kts 258°
2026-05-05 00:55 38.20804 -122.28627 582 ft 42 kts 256°
2026-05-05 00:56 38.20641 -122.28925 756 ft 46 kts 213°
2026-05-05 00:56 38.20300 -122.28873 910 ft 55 kts 161°
2026-05-05 00:56 38.20100 -122.28477 1007 ft 54 kts 99°
2026-05-05 00:56 38.20148 -122.27997 1015 ft 56 kts 84°
2026-05-05 00:57 38.20176 -122.27512 1029 ft 56 kts 87°
2026-05-05 00:57 38.20176 -122.26993 1001 ft 57 kts 91°
2026-05-05 00:57 38.20170 -122.26486 893 ft 56 kts 91°
2026-05-05 00:57 38.20331 -122.26156 731 ft 42 kts 358°
2026-05-05 00:58 38.20605 -122.26143 605 ft 37 kts 342°
2026-05-05 00:58 38.20853 -122.26208 483 ft 36 kts 332°
2026-05-05 00:58 38.21062 -122.26330 365 ft 32 kts 314°
2026-05-05 00:58 38.21171 -122.26542 264 ft 27 kts 273°
2026-05-05 00:59 38.21149 -122.26783 200 ft 29 kts 261°
2026-05-05 00:59 38.21104 -122.27032 129 ft 29 kts 266°
2026-05-05 00:59 38.21061 -122.27272 37 ft 25 kts 260°
2026-05-05 00:59 38.21030 -122.27481 47 ft 37 kts 264°
2026-05-05 01:00 38.20960 -122.27837 198 ft 46 kts 259°
2026-05-05 01:00 38.20875 -122.28231 311 ft 46 kts 261°
2026-05-05 01:00 38.20805 -122.28629 412 ft 46 kts 262°
2026-05-05 01:00 38.20745 -122.29028 513 ft 46 kts 267°
2026-05-05 01:01 38.20723 -122.29432 612 ft 46 kts 272°
2026-05-05 01:01 38.20742 -122.29832 729 ft 43 kts 278°
2026-05-05 01:01 38.20792 -122.30201 855 ft 43 kts 280°
2026-05-05 01:01 38.20865 -122.30579 966 ft 44 kts 287°
2026-05-05 01:02 38.20960 -122.30956 1027 ft 44 kts 287°
2026-05-05 01:02 38.21062 -122.31295 1010 ft 40 kts 292°
2026-05-05 01:02 38.21179 -122.31625 1017 ft 40 kts 292°
2026-05-05 01:02 38.21286 -122.31958 1030 ft 41 kts 294°
2026-05-05 01:03 38.21416 -122.32288 1032 ft 41 kts 296°
2026-05-05 01:03 38.21561 -122.32613 1028 ft 42 kts 297°
2026-05-05 01:03 38.21682 -122.32962 1013 ft 43 kts 287°
2026-05-05 01:03 38.21761 -122.33327 1007 ft 42 kts 287°
2026-05-05 01:04 38.21836 -122.33687 1008 ft 41 kts 281°
2026-05-05 01:04 38.21907 -122.34442 1005 ft 42 kts 279°
2026-05-05 01:04 38.21944 -122.34808 1014 ft 41 kts 281°
2026-05-05 01:05 38.21973 -122.35171 1024 ft 41 kts 276°
2026-05-05 01:05 38.21992 -122.35541 1037 ft 41 kts 277°
2026-05-05 01:05 38.22016 -122.35902 1042 ft 42 kts 277°
2026-05-05 01:05 38.22038 -122.36281 1040 ft 43 kts 278°
2026-05-05 01:06 38.22073 -122.36661 1029 ft 43 kts 278°
2026-05-05 01:06 38.22120 -122.37035 1026 ft 43 kts 281°
2026-05-05 01:06 38.22149 -122.37420 1020 ft 43 kts 279°
2026-05-05 01:06 38.22181 -122.37803 1008 ft 43 kts 276°
2026-05-05 01:07 38.22201 -122.38187 997 ft 43 kts 276°
2026-05-05 01:07 38.22232 -122.38564 993 ft 44 kts 278°
2026-05-05 01:07 38.22259 -122.38955 982 ft 44 kts 280°
2026-05-05 01:07 38.22280 -122.39340 985 ft 43 kts 275°
2026-05-05 01:08 38.22275 -122.39728 981 ft 43 kts 275°
2026-05-05 01:08 38.22275 -122.40115 976 ft 44 kts 274°
2026-05-05 01:08 38.22272 -122.40501 972 ft 41 kts 274°
2026-05-05 01:08 38.22287 -122.40853 834 ft 40 kts 280°
2026-05-05 01:09 38.22303 -122.41206 689 ft 40 kts 275°
2026-05-05 01:09 38.22299 -122.41559 543 ft 40 kts 276°
2026-05-05 01:09 38.22308 -122.41921 457 ft 41 kts 279°
2026-05-05 01:09 38.22321 -122.42300 393 ft 44 kts 279°
2026-05-05 01:10 38.22321 -122.42671 355 ft 41 kts 275°
2026-05-05 01:10 38.22317 -122.43017 353 ft 37 kts 276°
2026-05-05 01:10 38.22320 -122.43349 363 ft 37 kts 276°
2026-05-05 01:10 38.22324 -122.43684 379 ft 37 kts 275°
2026-05-05 01:11 38.22321 -122.43997 375 ft 35 kts 276°
2026-05-05 01:11 38.22324 -122.44280 330 ft 28 kts 277°
2026-05-05 01:11 38.22325 -122.44527 189 ft 27 kts 279°
2026-05-05 01:11 38.22326 -122.44775 83 ft 30 kts 279°
2026-05-05 01:12 38.22329 -122.45029 13 ft 27 kts 279°
2026-05-05 01:12 38.22331 -122.45207 8 ft 15 kts 271°
2026-05-05 01:12 38.22331 -122.45331 8 ft 13 kts 268°
2026-05-05 01:12 38.22331 -122.45425 9 ft 8 kts 266°
2026-05-05 01:13 38.22306 -122.45473 11 ft 6 kts 167°
2026-05-05 01:13 38.22276 -122.45459 10 ft 0 kts 252°